Flag for U.S.A. Weather past 2 weeks in Washington DC, District of Columbia, U.S.A.

Now
74 °F

Light rain. Mostly cloudy.


Feels Like: 75 °F
Forecast: 69 / 78 °F
Wind: 5 mph from Southeast

Location: Reagan National Airport

Current Time: Jul 3, 2015 at 11:39:54 PM

Latest Report: Jul 3, 2015 at 10:52 PM


Visibility: 10 mi

Pressure: 29.94 "Hg

Humidity: 76%

Dew point: 66 °F

Location of Washington DCLocation

Historic Weather in Washington DC — Graph

°F

Washington DC temperature yesterday

Maximum temperature yesterday: 77 °F (at 1:52 PM)
Minimum temperature yesterday: 71 °F (at 6:52 AM)
Average temperature yesterday: 74 °F

Past Weeks' High & Low Weather Summary

 TemperatureHumidityPressure
High96 °F (Jun 23, 4:52 PM)94% (Jul 3, 6:02 AM)30.11 "Hg (Jul 3, 6:02 AM)
Low63 °F (Jun 29, 5:52 AM)36% (Jun 29, 4:52 PM)29.66 "Hg (Jun 28, 1:52 AM)
Average79 °F67%29.92 "Hg
* Reported Jun 18 9:52 PM — Jul 3 9:52 PM, Washington DC, Weather by CustomWeather, © 2015

Note: Actual official high and low records may vary slightly from our data, if they occured in-between our weather recording intervals... More about our weather records

Advertising

Washington DC weather history for previous 24 hours

 ConditionsComfort  
Time TempWeatherWind HumidityBarometerVisibility
9:52 PM
Fri, Jul 3
74 °FLight rain. Mostly cloudy.3 mph76%29.93 "Hg10 mi
8:52 PM76 °FMore clouds than sun.5 mph72%29.93 "Hg10 mi
7:52 PM77 °FLight rain. Cloudy.7 mph69%29.94 "Hg10 mi
6:52 PM79 °FLight rain. Mostly cloudy.7 mph60%29.94 "Hg10 mi
5:55 PM81 °FCloudy.7 mph62%29.94 "Hg10 mi
4:52 PM81 °FMore clouds than sun.8 mph58%29.95 "Hg10 mi
3:52 PM82 °FMore clouds than sun.9 mph51%29.95 "Hg10 mi
2:52 PM83 °FMore clouds than sun.5 mph57%29.97 "Hg10 mi
1:52 PM81 °FBroken clouds.7 mph58%29.98 "Hg10 mi
12:52 PM81 °FBroken clouds.7 mph56%30.00 "Hg10 mi
11:52 AM78 °FPartly sunny.8 mph64%30.00 "Hg10 mi
10:52 AM78 °FBroken clouds.8 mph69%30.00 "Hg9 mi
9:52 AM75 °FPartly sunny.No wind74%30.00 "Hg6 mi
8:52 AM71 °FFog.No wind87%29.98 "Hg4 mi
7:52 AM69 °FFog.No wind87%29.97 "Hg2 mi
6:52 AM68 °FFog.No wind90%29.96 "Hg1 mi
6:02 AM66 °FFog.No wind94%29.95 "Hg1 mi
5:52 AM67 °FFog.5 mph90%29.94 "Hg1 mi
4:52 AM68 °FFog.No wind84%29.93 "Hg6 mi
3:52 AM69 °FClear.No wind84%29.92 "Hg6 mi
2:52 AM69 °FClear.No wind84%29.92 "Hg7 mi
1:52 AM70 °FFog.No wind87%29.92 "Hg6 mi
12:52 AM70 °FPassing clouds.No wind87%29.93 "Hg8 mi
11:52 PM
Thu, Jul 2
73 °FPassing clouds.No wind76%29.92 "Hg9 mi
Weather by CustomWeather, © 2015

See weather overviewHow to use our weather pages